• în Republica Moldova
  • Lista ţărilor
  • Pe 7 zile
  • Temperatura apei
  • Hartă satelitară
  • Meteo pe hartă
  • Widget-uri
  • user-avatar
    Intrare

    Meteo pe oră la Adelaide

    Astăzi, 22 August, Marţi

    Timp Temperatura Precipitaţii Vânt Presiune Umiditate
    00:00 +10°C° 0 mm 3 m/s 760 mmHg 91%
    01:00 +10°C° 0 mm 3 m/s 760 mmHg 90%
    02:00 +10°C° 0 mm 3 m/s 760 mmHg 90%
    03:00 +10°C° 0 mm 3 m/s 760 mmHg 89%
    04:00 +10°C° 0 mm 3 m/s 760 mmHg 88%
    05:00 +10°C° 0 mm 3 m/s 761 mmHg 87%
    06:00 +10°C° 0 mm 3 m/s 761 mmHg 85%
    07:00 +11°C° 0 mm 3 m/s 761 mmHg 81%
    08:00 +12°C° 0 mm 3 m/s 762 mmHg 76%
    09:00 +14°C° 0 mm 4 m/s 762 mmHg 72%
    10:00 +14°C° 0 mm 4 m/s 762 mmHg 68%
    11:00 +15°C° 0 mm 4 m/s 762 mmHg 64%
    12:00 +15°C° 0 mm 4 m/s 761 mmHg 61%
    13:00 +15°C° 0 mm 4 m/s 761 mmHg 61%
    14:00 +15°C° 0 mm 4 m/s 761 mmHg 62%
    15:00 +15°C° 0 mm 4 m/s 761 mmHg 62%
    16:00 +14°C° 0 mm 4 m/s 761 mmHg 68%
    17:00 +13°C° 0 mm 4 m/s 762 mmHg 73%
    18:00 +12°C° 0 mm 4 m/s 762 mmHg 79%
    19:00 +11°C° 0 mm 3 m/s 762 mmHg 80%
    20:00 +11°C° 0 mm 3 m/s 762 mmHg 82%
    21:00 +11°C° 0 mm 3 m/s 763 mmHg 84%
    22:00 +10°C° 0 mm 3 m/s 763 mmHg 85%
    23:00 +10°C° 0 mm 3 m/s 762 mmHg 87%

    Mâine, 23 August, Miercuri

    Timp Temperatura Precipitaţii Vânt Presiune Umiditate
    00:00 +10°C° 0 mm 4 m/s 762 mmHg 88%
    01:00 +10°C° 0 mm 4 m/s 762 mmHg 89%
    02:00 +10°C° 0 mm 4 m/s 762 mmHg 90%
    03:00 +10°C° 0 mm 4 m/s 762 mmHg 91%
    04:00 +10°C° 0,1 mm 4 m/s 762 mmHg 91%
    05:00 +10°C° 0,1 mm 4 m/s 762 mmHg 91%
    06:00 +9°C° 0,1 mm 5 m/s 762 mmHg 91%
    07:00 +10°C° 0,1 mm 5 m/s 762 mmHg 88%
    08:00 +12°C° 0,1 mm 5 m/s 762 mmHg 84%
    09:00 +13°C° 0,1 mm 6 m/s 762 mmHg 80%
    10:00 +14°C° 0,2 mm 6 m/s 762 mmHg 77%
    11:00 +15°C° 0,2 mm 6 m/s 762 mmHg 74%
    12:00 +15°C° 0,2 mm 7 m/s 762 mmHg 71%
    13:00 +15°C° 0,4 mm 7 m/s 761 mmHg 72%
    14:00 +15°C° 0,4 mm 6 m/s 761 mmHg 73%
    15:00 +15°C° 0,4 mm 6 m/s 761 mmHg 75%
    16:00 +14°C° 0,2 mm 6 m/s 762 mmHg 78%
    17:00 +12°C° 0,2 mm 5 m/s 762 mmHg 82%
    18:00 +11°C° 0,2 mm 4 m/s 763 mmHg 86%
    19:00 +11°C° 0 mm 4 m/s 763 mmHg 85%
    20:00 +10°C° 0 mm 4 m/s 764 mmHg 84%
    21:00 +8°C° 0 mm 4 m/s 764 mmHg 83%
    22:00 +8°C° 0 mm 4 m/s 765 mmHg 83%
    23:00 +9°C° 0 mm 3 m/s 765 mmHg 83%

    Poimâine, 24 August, Joi

    Timp Temperatura Precipitaţii Vânt Presiune Umiditate
    00:00 +9°C° 0 mm 3 m/s 765 mmHg 83%
    01:00 +8°C° 0 mm 3 m/s 765 mmHg 83%
    02:00 +8°C° 0 mm 3 m/s 765 mmHg 82%
    03:00 +8°C° 0 mm 2 m/s 765 mmHg 82%
    04:00 +8°C° 0 mm 2 m/s 765 mmHg 83%
    05:00 +8°C° 0 mm 3 m/s 765 mmHg 83%
    06:00 +8°C° 0 mm 3 m/s 766 mmHg 84%
    07:00 +10°C° 0,1 mm 3 m/s 766 mmHg 80%
    08:00 +11°C° 0,1 mm 3 m/s 766 mmHg 76%
    09:00 +13°C° 0,1 mm 3 m/s 767 mmHg 72%
    10:00 +13°C° 0,1 mm 4 m/s 766 mmHg 68%
    11:00 +14°C° 0,1 mm 4 m/s 766 mmHg 63%
    12:00 +14°C° 0,1 mm 4 m/s 766 mmHg 58%
    13:00 +14°C° 0 mm 4 m/s 766 mmHg 58%
    14:00 +14°C° 0 mm 4 m/s 766 mmHg 59%
    15:00 +14°C° 0 mm 4 m/s 765 mmHg 60%
    16:00 +13°C° 0 mm 3 m/s 766 mmHg 65%
    17:00 +11°C° 0 mm 3 m/s 766 mmHg 70%
    18:00 +10°C° 0 mm 2 m/s 767 mmHg 75%
    19:00 +10°C° 0 mm 2 m/s 767 mmHg 76%
    20:00 +9°C° 0 mm 2 m/s 767 mmHg 78%
    21:00 +9°C° 0 mm 2 m/s 768 mmHg 79%
    22:00 +9°C° 0 mm 1 m/s 768 mmHg 80%
    23:00 +9°C° 0 mm 1 m/s 767 mmHg 81%

    25 August, Vineri

    Timp Temperatura Precipitaţii Vânt Presiune Umiditate
    00:00 +9°C° 0 mm 1 m/s 767 mmHg 83%
    01:00 +8°C° 0 mm 1 m/s 767 mmHg 83%
    02:00 +8°C° 0 mm 1 m/s 767 mmHg 84%
    03:00 +8°C° 0 mm 1 m/s 767 mmHg 84%
    04:00 +8°C° 0 mm 1 m/s 767 mmHg 85%
    05:00 +7°C° 0 mm 1 m/s 767 mmHg 85%
    06:00 +7°C° 0 mm 1 m/s 767 mmHg 86%
    07:00 +9°C° 0 mm 1 m/s 768 mmHg 80%
    08:00 +11°C° 0 mm 1 m/s 768 mmHg 75%
    09:00 +12°C° 0 mm 1 m/s 768 mmHg 70%
    10:00 +13°C° 0 mm 1 m/s 768 mmHg 66%
    11:00 +13°C° 0 mm 1 m/s 767 mmHg 63%
    12:00 +14°C° 0 mm 1 m/s 767 mmHg 60%
    13:00 +14°C° 0 mm 2 m/s 767 mmHg 61%
    14:00 +14°C° 0 mm 2 m/s 767 mmHg 62%
    15:00 +13°C° 0 mm 2 m/s 766 mmHg 64%
    16:00 +12°C° 0 mm 2 m/s 766 mmHg 67%
    17:00 +10°C° 0 mm 2 m/s 767 mmHg 69%
    18:00 +10°C° 0 mm 2 m/s 767 mmHg 72%
    19:00 +9°C° 0 mm 2 m/s 767 mmHg 73%
    20:00 +8°C° 0 mm 2 m/s 768 mmHg 75%
    21:00 +9°C° 0 mm 1 m/s 768 mmHg 76%
    22:00 +8°C° 0 mm 1 m/s 768 mmHg 77%
    23:00 +8°C° 0 mm 1 m/s 768 mmHg 78%

    26 August, Sâmbătă

    Timp Temperatura Precipitaţii Vânt Presiune Umiditate
    00:00 +8°C° 0 mm 1 m/s 767 mmHg 78%
    01:00 +7°C° 0 mm 1 m/s 767 mmHg 79%
    02:00 +7°C° 0 mm 1 m/s 767 mmHg 80%
    03:00 +7°C° 0 mm 1 m/s 767 mmHg 81%
    04:00 +7°C° 0 mm 1 m/s 767 mmHg 81%
    05:00 +7°C° 0 mm 1 m/s 768 mmHg 81%
    06:00 +7°C° 0 mm 1 m/s 768 mmHg 82%
    07:00 +8°C° 0 mm 1 m/s 768 mmHg 76%
    08:00 +10°C° 0 mm 1 m/s 769 mmHg 70%
    09:00 +12°C° 0 mm 1 m/s 769 mmHg 64%
    10:00 +13°C° 0 mm 1 m/s 769 mmHg 60%
    11:00 +14°C° 0 mm 1 m/s 768 mmHg 57%
    12:00 +15°C° 0 mm 1 m/s 768 mmHg 54%
    13:00 +15°C° 0 mm 2 m/s 768 mmHg 56%
    14:00 +15°C° 0 mm 2 m/s 768 mmHg 57%
    15:00 +15°C° 0 mm 2 m/s 767 mmHg 59%
    16:00 +14°C° 0 mm 2 m/s 768 mmHg 64%
    17:00 +13°C° 0 mm 2 m/s 768 mmHg 69%
    18:00 +12°C° 0 mm 2 m/s 768 mmHg 74%
    19:00 +10°C° 0 mm 2 m/s 769 mmHg 76%
    20:00 +10°C° 0 mm 2 m/s 769 mmHg 79%
    21:00 +9°C° 0 mm 2 m/s 769 mmHg 81%
    22:00 +9°C° 0 mm 2 m/s 769 mmHg 83%
    23:00 +9°C° 0 mm 2 m/s 769 mmHg 84%

    27 August, Duminică

    Timp Temperatura Precipitaţii Vânt Presiune Umiditate
    00:00 +9°C° 0 mm 1 m/s 769 mmHg 86%
    01:00 +9°C° 0 mm 1 m/s 769 mmHg 86%
    02:00 +9°C° 0 mm 1 m/s 769 mmHg 87%
    03:00 +8°C° 0 mm 1 m/s 768 mmHg 88%
    04:00 +8°C° 0 mm 1 m/s 769 mmHg 88%
    05:00 +8°C° 0 mm 1 m/s 769 mmHg 88%
    06:00 +8°C° 0 mm 1 m/s 769 mmHg 87%
    07:00 +10°C° 0 mm 1 m/s 769 mmHg 82%
    08:00 +11°C° 0 mm 1 m/s 769 mmHg 77%
    09:00 +13°C° 0 mm 1 m/s 770 mmHg 72%
    10:00 +14°C° 0 mm 1 m/s 769 mmHg 68%
    11:00 +15°C° 0 mm 1 m/s 769 mmHg 63%
    12:00 +16°C° 0 mm 2 m/s 769 mmHg 59%
    13:00 +16°C° 0,1 mm 2 m/s 768 mmHg 62%
    14:00 +16°C° 0,1 mm 3 m/s 768 mmHg 64%
    15:00 +14°C° 0,1 mm 3 m/s 767 mmHg 66%
    16:00 +13°C° 0,1 mm 3 m/s 768 mmHg 71%
    17:00 +12°C° 0,1 mm 3 m/s 768 mmHg 77%
    18:00 +11°C° 0,1 mm 3 m/s 768 mmHg 82%
    19:00 +10°C° 0 mm 3 m/s 768 mmHg 84%
    20:00 +10°C° 0 mm 3 m/s 768 mmHg 85%
    21:00 +9°C° 0 mm 3 m/s 768 mmHg 86%
    22:00 +9°C° 0 mm 3 m/s 768 mmHg 86%
    23:00 +8°C° 0 mm 3 m/s 768 mmHg 87%
    Arată mai mult